Dewpoint
40 40 41 42 42 43 44 43 44 44 46 47 48 48 48 49 50 50 54 54 44 40 41 42 35 31 35 33 40 39 38 39 37 35 38 35 36 29 28 25 30 28 32 30 32 31 21 23 26 22 30 26 26 29
40 41 42 43 43 41 42 43 47 47 48 48 48 48 48 49 49 50 52 52 51 44 46 49 49 48 46 43 37 40 35 38 38 35 41 42 36 34 34 26 29 27 29 29 27 26 27 25 24 27 29 30 30 30
43 42 42 43 43 46 46 47 47 47 47 48 48 48 49 49 49 51 51 52 48 48 46 45 45 48 49 50 50 39 43 40 40 44 42 42 34 38 32 32 31 29 31 28 27 22 23 25 27 29 30 31 33 34
43 43 44 47 47 47 47 47 47 48 48 48 48 49 49 49 50 51 51 52 47 49 45 46 48 47 49 49 48 48 45 46 43 43 46 37 37 37 37 33 29 31 30 27 29 27 27 27 32 35 37 38 38 38
47 47 47 47 46 46 46 47 47 47 47 48 48 49 49 49 50 51 52 52 51 43 44 45 47 47 47 46 45 45 44 42 41 42 35 40 39 39 39 37 34 31 31 32 30 33 35 34 38 40 39 38 38 39
46 46 46 46 46 46 47 47 47 47 48 48 48 49 49 50 50 51 46 50 49 50 47 44 47 46 47 46 44 44 44 42 41 45 44 38 39 40 38 33 36 36 37 38 37 39 39 39 35 35 35 36 35 34
46 46 46 47 47 48 48 48 48 48 48 48 48 48 49 50 52 45 41 49 48 50 47 44 44 45 46 45 46 45 46 45 44 44 42 42 39 40 40 35 36 36 37 39 38 39 39 34 34 36 35 35 35 35
46 46 46 46 46 47 48 48 48 48 48 48 48 48 48 48 48 47 46 45 47 44 44 41 42 45 46 46 44 45 47 46 44 42 42 41 40 42 39 35 36 36 38 36 35 35 35 35 34 34 35 34 32 31
46 46 46 45 45 46 47 48 47 47 47 48 48 49 49 50 47 47 44 46 49 46 39 40 40 39 43 41 43 44 45 40 42 40 41 41 38 36 34 34 35 36 36 36 36 34 34 34 34 33 32 32 32 34
46 46 46 46 45 44 44 44 45 46 46 48 47 43 43 48 44 46 43 46 44 43 41 38 41 39 41 42 39 40 41 40 36 39 41 39 33 33 34 34 35 35 36 35 33 32 33 33 32 32 32 32 31 28
44 44 44 45 47 45 45 45 46 45 47 48 47 45 48 44 46 43 39 39 39 36 38 38 39 38 41 38 36 40 37 38 33 35 36 34 31 32 34 34 35 35 36 36 34 32 32 32 33 32 30 30 30 28
43 42 42 43 44 44 43 43 45 45 46 47 47 46 45 42 41 33 34 37 38 35 37 37 38 38 39 41 37 38 34 35 31 36 34 32 31 33 34 34 34 33 32 32 32 30 30 29 28 27 24 26 28 28
43 43 42 41 41 42 43 44 42 43 45 46 43 38 39 37 31 30 27 33 33 36 36 38 36 39 39 39 36 35 32 33 35 32 30 30 31 33 34 33 32 32 31 29 27 26 25 25 28 27 27 29 30 27
41 41 42 42 41 40 41 41 44 45 43 39 37 33 34 33 32 31 33 34 33 35 38 38 36 37 38 36 36 32 31 34 29 28 29 29 32 33 35 33 31 28 28 25 25 25 26 26 28 30 30 31 30 27
39 39 40 40 41 39 39 40 41 41 39 34 35 30 29 30 31 31 33 33 33 35 37 37 37 37 34 33 34 32 29 29 30 30 31 32 32 33 34 30 27 26 29 29 27 27 30 30 28 28 28 26 26 26
37 37 38 40 38 37 38 40 40 39 37 33 32 30 31 31 30 32 32 31 34 35 37 38 34 33 31 32 31 30 30 28 29 32 33 33 32 34 33 29 30 30 29 26 27 29 30 29 29 28 25 21 23 23
36 36 38 38 37 36 37 37 36 35 33 32 30 32 32 31 30 31 32 31 34 34 32 34 31 30 32 30 29 31 30 32 33 32 32 34 33 34 34 33 32 29 27 28 28 28 28 27 24 21 17 16 15 16
36 36 37 37 37 35 34 35 34 31 30 31 30 30 31 31 32 31 32 33 35 33 34 31 33 30 30 28 29 31 32 34 33 31 32 32 34 35 34 31 27 28 29 28 27 25 23 21 19 17 15 13 11 11
35 36 36 35 36 35 31 31 32 29 30 32 32 32 32 31 33 34 33 34 34 35 35 33 30 31 30 31 31 31 33 32 31 31 31 34 33 31 28 29 29 28 27 26 24 22 19 17 15 13 13 10 12 13
35 35 35 35 34 30 29 29 32 29 28 30 32 30 32 31 32 32 34 33 32 32 29 29 27 27 29 30 31 33 34 33 31 30 29 31 33 31 29 28 27 25 22 19 17 17 16 16 13 11 12 12 13 13
34 33 35 35 32 30 29 28 28 29 29 28 30 29 29 31 31 31 31 32 30 27 26 29 28 28 28 29 31 32 33 32 31 30 28 27 28 26 24 22 23 22 21 21 19 16 16 13 11 10 13 14 13 13
31 34 35 35 32 32 28 30 26 27 27 28 27 26 27 28 28 29 31 28 26 27 28 28 30 29 26 26 27 30 32 31 30 29 29 27 25 24 23 22 21 20 18 16 15 15 13 10 10 10 12 12 12 12
32 32 33 33 28 28 27 30 26 25 23 24 25 23 24 25 26 27 25 26 26 27 28 27 27 28 27 27 26 25 27 27 26 26 25 24 23 21 19 17 18 17 15 9 9 9 10 9 10 10 11 10 10 10
29 29 26 26 26 25 28 25 25 24 25 23 22 22 22 24 25 23 22 21 23 23 26 26 26 25 25 23 21 21 24 25 24 24 25 23 19 17 16 13 11 10 9 9 10 11 10 10 9 9 9 8 8 8
22 23 25 22 26 23 23 23 23 22 20 22 22 22 23 25 22 20 19 19 20 20 22 24 24 24 22 21 20 19 21 22 20 17 19 20 19 15 11 9 8 8 9 10 9 9 9 8 8 7 6 7 6 5
21 23 22 23 22 22 22 19 20 21 21 21 22 23 25 23 18 15 15 18 18 18 19 20 22 20 17 17 16 15 16 20 18 14 14 13 13 13 10 9 8 10 8 9 8 7 6 6 5 4 5 5 5 5
20 21 23 24 23 22 22 23 22 21 19 19 21 21 22 17 15 16 17 17 17 17 17 18 18 17 15 15 15 15 16 15 14 12 9 8 8 8 9 8 7 6 6 6 6 5 5 4 4 4 4 5 5 5
22 22 20 23 22 23 20 20 20 20 21 22 22 18 17 16 14 15 15 17 18 17 16 15 14 14 14 15 16 15 14 12 11 10 10 10 9 8 8 8 7 5 5 5 4 4 4 4 4 4 4 4 3 4
22 24 23 20 22 22 21 20 20 21 21 21 22 18 14 12 13 14 15 17 18 18 16 15 14 15 13 11 11 11 11 10 8 4 4 6 6 8 7 6 6 6 5 5 4 3 3 3 3 3 3 3 3 3
21 25 21 21 20 18 21 22 22 23 20 20 17 13 12 11 12 15 14 14 13 12 12 12 12 12 10 10 9 9 8 7 6 5 4 4 5 5 5 5 5 5 5 5 4 3 3 3 2 3 3 2 2 1
23 22 20 20 19 21 22 24 25 22 20 17 17 15 12 10 11 11 11 11 11 11 11 10 9 9 7 6 7 6 6 7 5 4 4 4 5 5 6 5 5 5 4 4 3 2 2 0 1 1 1 -0 -1 -2
20 20 18 16 19 21 21 20 20 21 20 17 13 13 11 11 8 8 9 12 10 8 7 8 8 7 7 7 7 6 3 5 4 4 3 4 4 5 5 5 5 4 3 2 1 1 1 -0 -0 -1 -1 -1 -2 -5
19 18 18 17 17 16 18 17 15 14 14 12 10 11 10 10 5 7 9 10 8 8 8 8 8 8 7 6 6 5 4 4 3 4 4 2 2 2 3 3 4 3 2 1 1 1 0 -1 -1 -2 -3 -4 -5 -6
Wind_Speed
24 24 22 24 23 24 21 21 24 31 28 31 35 33 32 29 25 24 9 7 5 8 9 3 7 19 11 18 13 13 9 3 5 5 6 4 2 5 4 3 6 8 9 5 4 4 6 6 6 2 5 8 9 10
21 21 20 20 19 17 24 25 26 32 31 32 32 31 30 25 27 32 7 1 11 7 8 8 9 9 3 3 11 17 4 14 10 8 3 3 3 2 2 5 4 5 6 2 7 1 5 4 4 4 6 9 10 12
19 18 18 19 29 26 28 27 27 28 29 29 29 28 26 25 27 25 2 3 7 7 8 8 7 7 7 5 4 7 4 6 7 2 6 4 3 6 6 6 3 4 2 3 1 2 1 4 4 3 7 10 12 13
18 19 21 24 24 26 25 25 27 28 29 30 30 28 25 25 27 22 4 2 4 8 6 5 3 3 6 1 2 2 13 7 11 7 4 4 4 5 5 2 5 3 7 5 6 9 4 1 7 9 11 11 11 12
25 25 22 19 21 22 23 21 21 23 24 25 24 24 25 27 25 12 1 4 7 3 6 9 10 7 4 5 7 8 14 13 8 5 3 4 5 5 2 1 4 2 0 4 4 5 4 8 12 10 9 10 11 10
25 24 23 20 19 18 18 19 20 21 22 23 25 27 31 30 25 13 6 5 6 4 6 6 4 6 9 11 13 10 8 5 4 5 4 4 2 3 7 7 4 4 2 2 4 9 5 6 10 11 14 15 17 18
25 26 26 25 24 21 18 17 19 22 24 27 29 31 31 26 10 2 2 5 4 2 4 7 6 4 3 5 4 6 6 4 3 4 3 4 4 4 4 6 6 2 2 3 6 8 9 12 8 14 15 17 21 23
31 30 28 28 27 27 27 26 29 30 30 31 30 30 26 21 16 4 7 12 6 1 2 7 4 5 4 3 3 4 3 4 7 4 3 4 4 1 4 5 4 5 9 8 8 11 12 12 12 14 17 19 21 18
28 27 27 28 30 32 30 27 31 33 34 34 29 25 13 2 3 5 7 7 3 3 2 4 9 6 3 3 3 3 2 4 2 3 3 4 3 4 4 5 5 6 4 6 11 12 12 14 15 17 17 14 14 10
28 26 29 25 29 26 21 20 22 23 24 19 15 6 5 3 6 4 12 5 1 3 6 5 2 6 1 3 3 3 3 5 3 2 4 2 3 6 4 3 2 2 3 13 14 11 14 16 16 14 11 10 9 8
29 31 28 27 26 24 16 16 16 16 10 4 5 4 3 6 3 1 2 1 1 4 5 4 4 8 3 4 4 2 4 2 4 4 5 5 4 5 5 5 4 4 7 10 16 14 14 14 12 9 8 8 6 5
29 30 29 28 25 23 27 29 18 11 4 5 11 8 3 2 4 3 1 1 3 3 2 4 4 5 3 2 4 3 4 3 3 8 4 4 5 10 10 11 13 16 18 18 15 14 12 9 7 7 6 6 7 7
29 29 29 28 25 24 25 28 18 13 7 4 5 5 3 5 4 3 5 2 3 2 2 4 5 3 4 4 5 3 4 3 5 3 4 2 12 13 15 16 14 12 13 12 11 10 9 9 9 7 8 8 4 7
24 26 30 28 26 25 21 17 14 9 11 8 6 5 5 3 5 3 4 4 2 3 7 8 5 3 2 4 2 4 2 3 5 5 4 10 15 14 12 15 15 13 6 8 9 9 8 9 10 10 10 8 8 8
23 24 20 29 21 21 19 22 22 12 9 7 6 4 5 3 5 2 2 4 4 2 3 5 5 4 4 4 2 5 4 4 5 1 4 13 15 15 14 14 13 11 7 7 8 8 8 8 8 9 7 7 7 8
7 12 18 22 17 20 14 11 11 5 5 4 6 4 3 5 5 5 8 6 6 3 2 3 4 3 2 4 3 4 4 3 4 4 11 17 16 14 14 12 10 8 8 8 9 10 9 8 6 6 6 8 6 7
12 7 20 16 11 13 18 7 7 7 5 4 5 6 5 8 5 3 4 4 6 3 3 2 3 2 4 3 3 1 2 4 9 11 11 16 16 15 13 10 8 9 9 9 9 8 7 6 5 4 4 7 7 6
9 11 17 12 6 7 6 8 5 5 6 7 5 5 4 5 4 6 3 5 4 3 2 2 2 2 2 3 4 4 4 10 12 11 11 13 15 14 12 10 10 9 9 8 7 7 6 3 2 4 5 7 8 8
11 16 18 13 6 5 5 6 5 5 7 4 4 5 5 4 7 6 4 4 4 3 3 1 2 3 4 6 5 7 10 9 12 9 8 8 10 10 10 11 12 9 9 7 6 4 5 6 5 6 6 8 8 9
4 23 23 15 9 5 6 5 4 6 4 4 4 5 4 4 3 5 9 8 6 3 7 5 6 5 6 6 7 4 10 13 14 12 10 8 8 11 11 9 8 9 8 8 7 4 3 3 5 7 7 8 9 10
9 12 14 8 6 10 6 5 6 4 4 5 3 4 4 4 5 7 7 9 7 5 5 7 6 6 6 6 9 9 8 6 7 7 11 12 9 10 9 8 7 6 5 5 4 5 5 5 6 7 7 8 8 9
7 11 5 10 6 5 6 10 4 2 4 3 4 3 4 4 4 6 6 6 5 6 6 7 8 6 8 11 11 10 9 12 14 16 16 14 11 10 9 6 7 7 6 5 5 4 4 6 6 7 7 9 9 10
5 6 6 9 6 7 3 5 4 4 3 2 2 3 3 4 4 5 4 5 6 9 9 8 10 11 10 11 13 15 12 10 11 11 11 11 12 11 10 8 7 5 5 6 5 5 5 4 5 7 8 9 10 11
6 7 7 6 8 4 2 5 4 3 3 3 2 3 3 3 4 3 5 5 7 10 12 8 4 6 9 12 13 13 12 10 11 11 8 9 10 10 9 9 8 8 7 5 5 5 5 6 6 8 9 10 10 11
6 9 6 7 5 4 4 3 4 3 4 3 2 3 2 2 2 3 4 4 9 11 12 11 10 10 9 9 9 11 14 10 10 11 11 10 9 8 8 7 8 8 7 5 5 7 7 7 8 9 10 10 11 12
8 10 6 5 4 4 4 3 4 4 3 3 4 2 1 1 2 3 3 6 7 9 11 12 9 7 10 11 9 9 10 9 8 10 10 9 8 6 4 4 2 5 7 7 7 8 9 9 10 11 11 11 10 12
6 7 5 4 3 2 4 4 3 3 3 3 3 2 2 1 3 4 5 8 6 8 10 11 11 10 9 9 9 9 10 12 12 10 8 8 9 9 8 6 5 5 7 7 8 8 10 10 11 11 12 12 11 11
5 6 4 4 4 4 3 3 3 4 4 4 4 3 3 5 4 4 5 6 6 6 8 10 11 10 9 9 8 8 7 6 6 6 6 7 7 7 7 5 4 4 5 6 7 8 9 10 12 13 12 12 12 10
5 4 2 4 3 4 5 4 3 4 6 5 5 3 3 4 5 5 6 5 5 5 6 6 7 6 7 8 9 9 9 9 6 5 5 4 4 5 8 7 7 7 7 9 9 8 10 11 12 11 11 11 11 10
4 5 2 3 3 3 3 6 4 5 6 6 4 5 5 6 7 8 8 8 8 8 7 6 6 7 6 5 6 6 9 10 10 8 7 6 7 8 8 8 8 8 9 9 10 11 10 9 10 9 8 9 9 9
3 3 2 3 3 4 5 4 2 6 4 5 8 7 7 5 5 9 10 8 7 6 5 6 7 8 8 8 8 6 5 7 7 7 7 7 8 8 8 8 9 9 9 10 10 11 11 11 11 11 10 10 10 9
4 4 3 2 2 3 4 3 2 1 3 2 3 3 3 3 3 4 8 9 6 7 7 7 6 6 6 6 5 4 2 6 7 8 9 9 9 9 9 9 10 9 10 10 11 12 11 11 11 11 11 11 10 10
2 2 3 2 1 1 3 3 1 2 2 3 3 3 4 4 4 3 3 7 7 6 6 6 6 5 4 5 6 5 5 6 7 9 8 8 8 8 9 10 11 11 11 11 12 12 12 11 11 11 11 10 9 9
Wind_Direction
182 186 194 203 205 191 188 197 212 203 202 197 179 184 188 192 185 190 276 285 227 110 115 185 185 196 189 193 159 141 138 165 170 162 186 183 169 199 211 189 180 177 170 188 184 212 264 133 136 307 11 322 338 326
189 191 199 189 207 221 220 211 195 186 172 173 179 182 186 180 179 187 251 197 63 97 104 89 64 37 16 304 188 171 218 159 174 166 164 136 146 152 239 226 190 211 217 230 205 231 100 184 345 332 323 315 322 318
182 178 197 210 238 209 185 178 166 166 173 175 174 176 176 171 186 182 269 146 96 107 120 151 124 68 32 11 2 156 194 147 167 36 146 131 153 172 174 232 177 212 159 219 301 114 269 300 315 356 349 334 325 321
196 203 209 152 139 147 162 166 172 171 167 168 169 169 167 166 179 199 265 317 85 86 115 107 137 74 338 204 142 15 122 97 126 137 119 138 141 214 195 278 220 10 164 232 244 289 332 107 45 359 333 328 333 338
107 108 108 112 125 140 149 156 158 159 162 163 162 159 160 161 164 202 191 19 36 13 131 131 119 32 48 117 126 130 143 140 147 129 121 141 126 132 114 128 199 206 10 211 230 40 346 327 18 359 10 16 16 16
94 99 104 113 119 128 140 150 157 159 158 159 160 157 157 159 156 180 162 47 37 22 117 135 101 71 78 94 97 113 123 125 149 112 118 110 95 186 161 197 108 88 47 355 312 341 346 18 56 47 59 51 58 62
84 81 80 82 82 87 102 123 141 146 149 153 154 153 158 156 173 281 147 126 92 68 118 113 121 107 75 129 64 89 81 96 91 110 86 134 131 182 164 201 132 59 349 60 356 329 118 46 68 71 75 80 83 82
71 69 74 81 82 81 83 101 112 119 124 128 129 133 128 109 127 85 39 64 87 245 167 118 105 124 8 93 99 0 76 94 37 95 102 119 111 102 185 113 89 39 97 59 57 63 81 86 86 87 93 101 94 94
73 68 69 74 76 77 80 86 97 106 108 107 110 116 124 80 116 84 350 65 47 308 133 103 138 149 97 79 69 61 49 79 81 105 120 138 152 174 121 138 94 57 68 109 84 88 94 99 104 110 113 113 106 105
60 59 58 61 67 66 77 97 106 109 110 110 127 115 100 37 317 343 30 333 39 49 36 88 90 118 134 134 90 98 49 135 150 113 128 122 127 111 102 91 54 40 117 132 111 108 116 117 123 126 111 105 107 90
53 54 49 49 54 40 55 81 113 128 126 62 82 74 85 48 71 186 176 116 95 73 42 72 76 122 26 121 118 23 119 121 160 162 199 174 192 164 137 111 85 89 94 125 115 125 122 118 113 118 107 79 63 38
58 57 52 49 50 33 49 54 54 61 63 101 101 89 146 187 81 113 54 20 53 107 80 103 91 99 94 122 105 134 108 142 161 149 178 212 134 134 138 128 121 110 110 113 118 117 118 111 91 82 84 78 62 60
60 57 51 44 43 49 44 47 60 108 160 95 80 69 18 5 92 158 175 95 98 99 113 136 100 84 102 78 84 109 137 145 151 165 216 100 146 144 142 133 125 118 116 118 116 107 103 93 80 85 86 67 59 64
54 53 48 40 35 36 48 65 53 52 46 54 38 59 38 53 57 45 40 80 74 100 104 100 82 88 104 84 111 128 121 147 191 214 204 158 158 149 142 148 143 128 97 119 115 108 108 110 99 88 82 71 53 41
54 48 44 22 24 32 39 45 42 50 43 49 27 56 61 80 56 40 55 90 41 51 85 99 75 79 71 103 83 118 147 210 226 193 131 146 144 145 149 155 132 133 138 143 123 111 108 117 117 104 78 55 50 38
29 38 17 0 22 27 29 45 40 64 63 62 44 70 55 65 49 36 43 58 13 19 342 68 98 93 92 125 148 189 197 201 141 115 132 139 143 150 158 137 143 139 138 128 123 121 111 101 106 99 78 49 28 38
53 41 347 351 12 32 35 66 47 49 58 52 52 30 52 68 70 52 44 27 338 32 67 64 101 81 123 146 151 333 60 84 111 123 135 145 145 144 133 138 133 138 136 125 118 109 103 100 102 77 37 18 358 7
47 14 7 6 18 44 38 44 72 63 64 42 73 29 53 38 72 55 40 6 12 64 28 68 113 120 160 145 127 126 102 100 110 124 124 132 142 147 157 151 144 138 114 112 118 116 103 112 82 38 9 359 341 352
51 25 17 16 26 75 63 43 30 81 57 48 51 31 49 65 44 42 25 30 58 55 112 54 56 56 60 41 89 125 129 122 118 98 90 88 126 134 131 103 105 129 134 134 135 109 96 66 48 21 8 354 346 347
46 21 8 15 22 74 68 38 36 68 66 56 37 38 47 39 14 4 24 24 26 42 48 36 30 19 24 24 11 129 123 132 127 121 109 104 114 123 127 140 137 129 123 114 89 54 82 80 39 14 9 351 343 339
29 353 356 27 52 57 67 30 60 54 80 67 33 47 57 33 37 27 21 359 57 33 51 35 59 57 52 33 29 37 54 148 147 152 150 141 128 123 117 111 112 110 111 86 76 76 46 33 13 358 347 341 342 322
2 343 35 27 70 60 63 22 52 53 60 74 50 37 49 40 42 20 324 49 58 40 24 5 18 37 58 48 52 60 69 82 85 86 99 117 129 128 121 115 118 102 88 68 54 46 27 21 8 346 335 338 322 328
348 26 47 28 71 50 38 338 67 23 65 56 30 63 55 49 18 330 73 64 67 8 26 37 53 61 70 61 54 49 48 76 85 87 89 95 99 102 101 86 77 91 92 57 32 28 17 352 356 337 332 332 331 334
40 47 36 40 40 67 53 43 35 56 66 44 58 70 45 34 341 49 69 60 25 17 25 37 53 92 80 61 54 43 37 61 79 77 82 108 102 90 89 88 78 66 49 35 26 6 357 345 337 337 340 330 331 329
62 16 15 43 27 55 58 51 30 58 63 46 85 87 66 307 65 56 63 59 33 28 18 30 47 53 72 78 72 56 34 48 76 77 48 70 100 103 92 86 77 59 29 16 7 349 345 340 336 337 331 324 325 321
68 27 39 28 34 41 35 60 43 37 36 52 59 58 309 62 74 71 68 23 32 22 15 11 16 62 57 43 53 44 26 21 85 85 60 48 47 64 73 70 60 87 27 8 349 339 333 336 331 326 319 317 314 311
60 45 42 42 39 60 90 77 72 52 53 38 36 1 287 114 90 79 100 27 36 34 29 26 32 51 61 64 62 55 52 51 64 84 84 70 62 52 49 43 31 18 346 357 343 335 327 322 318 316 312 310 314 320
55 34 52 11 60 43 74 50 40 35 39 2 315 23 21 24 71 56 49 43 54 62 63 58 54 55 58 54 56 63 64 76 94 103 111 99 73 67 50 34 46 9 336 349 339 322 320 313 308 305 308 312 312 312
44 9 12 37 42 54 43 35 48 47 1 333 344 68 76 61 26 26 27 15 17 40 56 62 61 74 78 74 60 49 40 27 31 41 32 21 14 43 15 359 346 341 337 330 326 317 316 310 306 308 307 305 307 304
36 353 36 39 43 60 62 18 46 67 44 54 96 116 103 96 47 29 38 40 46 51 51 48 42 47 43 46 60 60 49 41 35 25 5 357 346 341 331 330 332 330 327 323 322 320 311 319 309 292 292 302 307 319
355 356 54 39 59 58 23 7 109 105 85 63 42 71 101 122 102 50 40 32 38 35 47 58 56 41 45 36 24 16 28 49 27 15 1 328 319 314 318 328 318 323 317 313 317 314 317 315 311 309 306 310 311 306
23 33 9 12 74 46 22 32 5 22 100 101 85 94 130 136 87 71 12 353 46 53 43 33 40 42 28 21 11 3 358 332 334 345 330 325 312 314 314 314 311 308 307 309 307 306 304 306 304 306 305 305 312 313
29 20 16 359 10 12 36 339 75 115 84 80 76 55 44 36 74 79 84 36 35 35 29 19 10 358 356 340 339 330 310 325 328 309 306 311 303 306 305 301 307 306 301 300 304 302 301 300 301 305 305 302 303 307